Flag for Switzerland Weather past 2 weeks in Kriens, Lucerne, Switzerland

Now
46 °F

Cool.


Feels Like: 46 °F
Forecast: 40 / 52 °F
Wind: No wind

Location: Giswil

Current Time: Apr 27, 2015 at 6:55:21 AM

Latest Report: Apr 27, 2015 at 6:00 AM


Visibility: N/A

Pressure: 29.63 "Hg

Humidity: 97%

Dew point: 45 °F

Location of KriensLocation

Historic Weather in Kriens — Graph

°F

Kriens temperature yesterday

Maximum temperature yesterday: 68 °F (at 4:00 PM)
Minimum temperature yesterday: 46 °F (at 7:00 AM)
Average temperature yesterday: 56 °F

Past Weeks' High & Low Weather Summary

 TemperatureHumidityPressure
High73 °F (Apr 15, 5:00 PM)100% (Apr 18, 2:00 AM)30.53 "Hg (Apr 18, 2:00 AM)
Low32 °F (Apr 21, 5:00 AM)24% (Apr 22, 6:00 PM)29.64 "Hg (Apr 26, 7:00 PM)
Average51 °F74%30.14 "Hg
* Reported Apr 12 6:00 AM — Apr 27 5:00 AM, Kriens, Weather by CustomWeather, © 2015

Note: Actual official high and low records may vary slightly from our data, if they occured in-between our weather recording intervals... More about our weather records

Advertising

Kriens weather history for previous 24 hours

 ConditionsComfort  
Time TempWeatherWind HumidityBarometerVisibility
5:00 AM
Mon, Apr 27
45 °FCool.No wind96%29.65 "HgN/A
4:00 AM43 °FQuite cool.2 mph97%29.68 "HgN/A
3:00 AM46 °FCool.3 mph96%29.68 "HgN/A
2:00 AM46 °FCool.1 mph94%29.69 "HgN/A
1:00 AM46 °FCool.1 mph96%29.69 "HgN/A
12:00 AM49 °FCool.1 mph93%29.68 "HgN/A
11:00 PM
Sun, Apr 26
49 °FCool.3 mph93%29.70 "HgN/A
10:00 PM50 °FCool.3 mph91%29.71 "HgN/A
9:00 PM57 °FCool.2 mph79%29.68 "HgN/A
8:00 PM59 °FCool.2 mph84%29.67 "HgN/A
7:00 PM63 °FMild.No wind72%29.64 "HgN/A
6:00 PM66 °FMild.2 mph57%29.64 "HgN/A
5:00 PM66 °FMild.2 mph57%29.67 "HgN/A
4:00 PM68 °FMild.5 mph52%29.68 "HgN/A
3:00 PM67 °FMild.3 mph54%29.72 "HgN/A
2:00 PM65 °FMild.3 mph55%29.74 "HgN/A
1:00 PM64 °FMild.3 mph57%29.78 "HgN/A
12:00 PM63 °FMild.2 mph58%29.81 "HgN/A
11:00 AM60 °FCool.2 mph62%29.84 "HgN/A
10:00 AM56 °FCool.2 mph71%29.86 "HgN/A
9:00 AM53 °FCool.1 mph87%29.88 "HgN/A
8:00 AM49 °FCool.2 mph97%29.90 "HgN/A
7:00 AM46 °FCool.1 mph99%29.91 "HgN/A
6:00 AM47 °FCool.1 mph99%29.91 "HgN/A
Weather by CustomWeather, © 2015

See weather overviewHow to use our weather pages